User: anonymous   Login
Location: Home
(40.5300°N, 105.0300°W)
Time: 11:07:44
(UTC-06:00)
Language:

STARLINK-2521 - Orbit

View from above orbital plane
View from above orbital plane
View from above satellite
View from above satellite

Ground track
Ground track

The orbit data is extracted from the following two-line orbital elements,

1 48648C 21044L   21259.39737992 -.00020568  00000-0 -13784-2 0  2596
2 48648  53.0535 262.7212 0000732  67.2511  35.2123 15.06409537    16
Epoch (UTC): 16 September 2021 09:32:13
Eccentricity: 0.0000732
inclination: 53.0535°
perigee height: 546 km
apogee height: 547 km
right ascension of ascending node: 262.7212°
argument of perigee: 67.2511°
revolutions per day: 15.06409537
mean anomaly at epoch: 35.2123°
orbit number at epoch: 1

The dashed part of the orbit path shows where the satellite is in the earth's shadow,  

DLR